Wind_Speed
22 22 22 22 23 24 24 23 23 24 25 24 23 23 24 24 25 25 25 25 26 26 26 26 27 27 28 28 29 30 30 31 32 32 33 33 33 33 33 34 34 34 34 35 35 36 36 36 36 37 37 37 37 37 37 38 38 38 38 38 38 38 38 38 38 38 38 38 39 39 39 39 38 38 38 38 39 39 39 39 39 39 39 39 39 39
22 23 22 22 23 24 24 24 23 23 24 25 25 25 25 25 26 26 25 25 25 25 25 26 26 27 28 29 29 30 31 31 32 32 32 32 32 33 33 33 34 34 34 35 35 36 36 36 37 37 37 37 38 38 38 38 38 38 38 38 38 38 38 37 37 37 37 37 37 37 37 38 38 38 38 39 39 39 39 39 39 39 40 39 40 40
23 23 23 22 22 23 24 24 24 23 24 25 26 26 26 26 26 25 25 24 24 24 25 26 27 28 29 29 30 30 30 30 31 31 31 31 32 32 33 33 34 35 35 35 36 36 36 37 37 37 37 37 37 37 37 38 38 38 38 38 38 38 38 37 37 37 37 37 37 37 37 37 37 38 38 38 39 39 39 39 39 39 39 39 39 40
23 23 23 23 23 23 24 24 25 25 25 25 26 26 26 26 25 24 24 24 25 26 26 27 28 28 29 29 29 29 29 29 30 30 31 32 32 33 33 34 35 35 35 36 36 36 36 36 37 37 37 37 37 37 37 38 38 38 38 38 38 38 38 38 38 38 38 38 38 38 37 37 38 39 39 39 38 38 38 38 38 38 37 38 38 39
23 23 24 24 24 24 24 24 25 25 25 25 25 25 25 24 24 23 23 24 25 27 27 27 27 27 27 27 28 28 28 29 30 31 31 32 33 33 34 34 35 35 35 35 35 36 36 36 36 36 37 37 37 37 37 38 38 38 38 38 38 38 38 38 38 38 38 38 38 38 38 37 38 38 39 38 38 37 36 36 36 36 36 36 36 36
23 23 24 24 24 24 24 24 25 25 25 24 24 23 23 23 23 23 24 25 26 26 26 26 26 26 26 27 27 28 29 30 30 31 31 32 32 33 33 34 34 34 34 34 35 35 35 36 36 36 37 37 37 37 37 38 38 38 38 38 38 38 38 38 38 38 38 38 38 38 37 37 37 37 38 38 37 37 36 36 36 36 35 35 35 35
25 24 24 24 24 25 25 24 24 24 24 24 23 22 21 21 23 24 25 26 26 26 26 26 26 26 26 26 27 28 28 29 30 30 31 31 31 31 32 33 33 33 34 34 34 35 35 36 36 36 36 36 37 37 37 37 38 38 38 38 38 38 38 38 38 38 38 38 38 38 37 37 37 37 37 37 37 37 37 37 37 37 37 36 36 36
25 25 24 23 24 25 26 25 23 22 22 23 22 22 22 23 24 25 26 26 25 25 25 26 26 25 25 26 26 27 28 28 29 29 29 30 30 30 31 32 33 33 34 34 34 35 35 35 35 36 36 36 36 36 37 37 37 37 38 38 38 38 38 38 38 38 38 38 38 37 37 37 37 37 37 37 37 37 37 37 38 38 38 38 38 38
23 24 24 24 24 25 25 25 23 20 19 20 20 21 23 25 25 26 25 25 25 24 25 25 26 26 26 26 26 27 27 28 29 29 29 30 30 30 31 32 32 33 33 33 33 34 34 34 35 35 35 35 36 36 36 36 37 37 37 37 37 38 38 38 37 37 37 37 37 37 36 36 36 36 36 36 36 36 36 36 37 37 37 38 38 38
23 23 24 25 24 23 23 23 22 20 18 19 20 22 23 25 26 26 25 25 25 24 24 25 25 26 26 26 26 26 27 29 29 30 30 30 30 30 31 31 32 32 32 32 33 33 33 34 34 34 34 35 35 35 35 35 36 36 36 36 36 36 37 36 36 36 36 36 36 35 35 35 35 35 35 35 35 35 35 35 36 36 36 36 37 37
23 24 24 24 23 22 19 19 19 19 19 21 22 24 24 25 25 25 24 25 25 25 25 25 25 25 26 26 26 27 27 28 29 29 29 28 28 29 29 30 30 30 31 31 32 32 32 32 33 33 33 34 34 34 34 34 34 35 35 35 35 35 35 35 35 35 35 35 35 35 35 34 34 34 34 34 34 35 35 35 35 35 35 36 36 36
22 23 22 21 20 18 17 17 18 20 21 23 23 24 24 24 24 24 24 24 25 25 25 25 25 25 26 26 26 27 27 28 28 28 28 27 26 26 27 27 28 28 29 29 30 30 30 31 31 32 32 33 33 33 33 33 33 33 34 34 34 34 34 34 34 34 34 34 34 34 34 34 34 34 34 34 34 35 35 35 35 35 36 36 36 36
22 20 18 16 15 16 17 19 21 23 23 23 23 22 23 24 24 24 24 24 25 25 26 26 26 26 26 25 25 25 26 27 27 28 27 26 25 25 25 26 27 27 28 29 29 29 29 30 31 31 31 32 32 32 32 32 32 32 32 32 33 33 33 34 34 34 34 34 34 35 35 35 35 35 35 35 35 35 35 36 36 36 36 36 36 36
19 17 15 14 15 18 21 23 24 24 24 24 23 24 24 24 24 24 23 24 25 25 26 26 26 27 26 24 23 23 24 25 27 27 27 26 25 24 25 26 27 28 29 29 29 29 29 29 30 30 30 30 30 30 30 30 30 31 31 32 32 33 33 34 34 35 35 35 35 36 36 36 36 36 36 36 36 37 37 36 36 36 36 36 36 36
15 14 14 16 19 21 24 24 24 24 25 25 25 25 25 24 23 23 22 23 24 25 26 26 26 26 25 23 22 22 22 24 25 26 26 26 25 25 25 26 28 29 29 29 29 29 29 28 28 28 29 29 29 29 29 30 31 31 32 32 33 34 34 35 35 35 36 36 36 36 37 36 36 36 37 37 37 37 37 37 37 37 37 37 36 37
15 16 17 18 21 23 24 24 24 24 25 25 24 23 23 23 22 22 22 23 24 24 23 22 22 22 23 23 22 21 22 23 25 25 26 27 27 26 26 27 28 30 30 29 28 28 28 28 28 28 28 29 29 30 30 31 32 32 33 34 34 35 35 36 36 36 36 36 36 36 36 36 36 36 36 36 36 36 37 37 37 36 36 36 37 37
19 20 20 20 21 23 25 25 24 24 24 23 23 22 22 22 22 22 22 22 22 21 20 18 12 9 14 22 24 22 22 23 24 25 26 27 28 27 26 26 28 29 29 29 28 28 28 28 28 28 28 28 29 30 31 32 33 34 34 35 35 36 36 36 36 36 36 36 36 36 36 36 36 36 36 36 36 36 36 37 37 36 36 37 37 37
21 21 21 21 22 23 25 24 23 23 23 22 22 22 22 22 23 23 23 22 20 18 18 18 14 8 7 14 21 25 24 24 25 26 27 27 28 28 27 26 27 28 29 28 28 27 27 27 28 28 29 30 31 32 33 33 34 34 35 35 35 35 36 36 36 36 36 36 36 36 36 37 37 37 37 37 36 36 37 37 37 37 37 37 38 38
21 22 22 22 23 23 23 22 22 21 21 21 21 22 23 24 24 23 22 21 19 18 17 16 17 17 16 19 24 27 26 25 25 26 26 27 28 29 27 26 26 27 28 28 27 27 27 27 28 29 30 31 32 32 33 33 33 34 34 35 35 36 36 36 36 36 36 36 36 36 36 37 37 37 37 37 37 37 37 37 37 38 38 38 38 38
22 23 23 22 22 22 22 22 21 21 21 22 23 23 24 24 23 21 20 19 19 19 20 20 20 21 23 25 27 28 27 26 25 25 25 26 27 27 26 25 25 26 27 27 27 27 27 27 28 29 29 30 31 31 32 33 33 34 35 35 36 36 36 36 36 36 36 36 36 36 36 36 36 37 36 37 37 37 37 38 37 37 38 38 38 38
22 22 22 22 22 21 21 21 22 22 22 24 25 26 25 23 21 19 19 19 21 22 23 22 22 23 24 26 27 29 28 26 24 24 24 25 25 26 25 24 24 25 27 27 27 26 26 27 27 28 29 30 31 32 33 34 34 35 35 36 36 36 36 36 36 36 36 36 36 36 36 36 36 36 36 36 37 37 37 37 37 37 38 38 38 38
22 23 23 23 22 22 22 23 24 24 25 27 26 24 22 20 18 19 20 22 23 24 24 23 24 25 26 27 29 29 28 25 23 22 22 20 22 25 24 24 24 25 26 26 26 26 26 27 27 28 30 31 32 33 34 34 35 35 35 35 35 35 35 35 35 35 36 36 36 36 36 36 36 36 36 36 36 36 37 37 37 37 38 38 38 39
23 23 24 23 23 23 23 24 25 26 27 26 24 22 20 20 21 23 24 24 25 25 25 26 26 27 27 27 28 27 26 23 22 22 20 13 16 23 25 24 23 24 25 26 26 26 27 28 29 30 31 32 33 33 34 34 34 34 34 34 34 34 34 34 34 34 34 35 35 35 35 35 36 36 36 36 36 37 37 37 37 38 38 38 39 39
22 23 23 23 23 24 25 27 27 27 26 25 23 23 23 23 24 25 24 24 25 25 25 25 25 25 25 25 25 25 23 22 21 20 19 16 18 23 25 24 24 24 25 26 26 27 28 29 30 30 31 32 32 32 32 33 33 32 32 32 32 32 32 33 33 33 34 34 35 35 35 36 36 36 36 37 37 37 37 37 38 38 38 39 39 39
23 23 24 25 26 27 28 28 27 27 27 26 26 25 25 26 26 26 26 25 24 23 23 22 21 21 21 22 22 23 23 21 20 19 19 18 20 24 25 24 23 23 25 27 27 27 28 29 30 30 30 31 31 31 31 31 31 30 30 30 31 31 32 32 33 33 34 35 35 35 35 35 36 36 36 36 36 37 37 37 38 38 38 39 39 39
26 26 27 28 29 30 30 30 30 30 30 29 28 27 26 26 25 24 23 21 20 20 20 18 16 16 20 20 21 21 22 21 20 19 19 18 20 22 24 22 22 23 25 27 28 28 28 29 30 31 30 30 30 29 29 29 28 28 29 29 30 31 32 33 33 34 35 35 35 35 35 35 35 35 35 35 35 36 36 36 37 37 38 38 39 39
27 28 29 29 28 28 28 28 28 29 29 28 27 26 25 25 23 21 20 19 19 18 17 13 11 13 17 17 18 20 22 22 21 20 20 20 19 19 21 22 22 23 25 27 28 27 27 28 30 30 29 28 27 27 27 27 27 28 29 30 31 32 32 33 33 34 34 34 34 34 34 34 34 35 35 35 35 35 35 36 36 37 37 38 38 38
26 25 25 24 24 25 25 26 27 27 26 25 25 24 23 22 20 19 18 19 18 18 16 12 10 9 9 12 17 22 23 22 21 20 19 18 16 17 20 22 22 23 24 26 28 28 27 27 27 27 27 26 25 25 26 27 28 29 30 30 31 31 32 32 32 32 32 33 33 33 33 34 34 35 35 35 35 35 35 36 36 36 37 36 36 35
22 22 21 22 22 23 24 25 24 24 23 23 22 22 21 20 19 18 19 19 19 17 17 16 14 12 11 15 20 22 23 22 20 19 18 17 16 17 21 22 22 22 23 24 27 28 26 25 23 23 24 24 25 26 27 27 28 29 29 30 30 30 30 30 30 30 30 31 31 32 32 33 33 34 34 35 35 36 36 36 36 35 35 34 34 33
20 20 21 21 22 22 22 22 22 22 21 21 21 20 19 18 18 18 19 19 18 17 17 17 17 16 15 15 15 15 16 19 19 18 17 16 15 18 21 22 22 22 22 20 17 17 20 22 22 22 22 24 25 26 27 27 27 27 28 28 28 28 28 28 28 29 29 30 30 31 32 32 32 33 33 34 34 35 35 35 35 34 34 33 32 32
21 21 21 22 21 21 21 20 20 20 20 19 19 18 17 17 17 18 18 18 17 17 17 18 18 18 17 10 6 5 7 17 21 20 19 17 16 18 20 21 21 22 21 17 9 6 11 14 21 25 23 24 26 27 27 27 27 27 27 27 27 26 27 27 27 28 28 29 29 30 30 31 31 32 32 32 33 34 34 35 35 34 33 32 32 31
21 21 21 21 20 20 19 19 19 19 18 18 18 17 17 17 17 18 18 17 17 17 18 18 18 19 18 13 10 8 9 19 24 22 20 18 18 20 21 20 21 22 21 19 15 10 8 6 16 27 27 27 27 27 27 27 26 26 26 26 26 26 27 27 27 27 27 28 28 29 29 30 30 31 31 32 32 33 34 34 34 33 32 31 30 30
21 21 20 20 20 19 19 19 18 18 18 18 17 17 17 17 17 17 17 17 17 17 17 18 18 19 19 19 18 18 20 24 25 24 21 18 17 19 21 21 21 21 22 21 21 18 12 9 16 25 28 28 27 27 27 26 26 25 25 25 25 26 26 26 26 26 27 27 28 28 28 29 29 30 31 31 32 32 33 33 33 33 32 31 29 28
20 20 20 19 19 19 18 18 18 18 18 17 17 18 17 17 18 18 18 18 18 18 18 19 19 19 19 19 19 21 24 26 25 23 21 19 18 19 22 21 21 21 21 20 20 20 18 19 20 21 23 27 29 28 26 26 25 25 24 24 25 25 26 26 26 26 26 27 26 26 27 27 28 28 29 29 30 30 31 31 32 32 32 31 30 29
19 19 19 18 18 18 18 18 18 18 18 17 17 17 18 18 18 18 18 18 18 19 19 19 20 20 20 19 19 20 24 26 26 25 23 21 20 21 22 21 21 20 19 19 18 17 16 19 22 21 19 22 26 27 27 25 25 24 24 24 24 25 26 26 26 26 26 26 26 26 26 26 26 26 27 27 28 29 30 31 32 33 33 34 33 32
18 18 18 18 17 18 18 18 18 18 18 17 17 18 18 18 19 19 19 20 20 21 21 21 22 22 23 23 22 23 25 28 29 28 25 23 22 22 21 22 22 21 19 19 18 16 13 15 20 23 19 15 17 22 27 27 25 25 25 25 25 25 25 25 25 25 26 26 26 26 26 25 26 26 27 28 29 31 32 33 33 34 35 35 36 36
18 18 18 17 17 17 17 18 18 18 18 18 18 18 19 19 20 20 21 21 22 22 22 23 23 23 24 24 25 26 28 29 30 30 29 27 26 24 22 22 24 23 21 19 19 18 16 13 14 16 16 12 11 16 23 27 27 26 25 25 25 25 26 26 25 25 25 25 26 26 26 26 27 27 28 30 31 31 32 32 33 33 34 34 35 36
17 17 17 17 17 17 17 18 18 18 18 19 19 19 20 21 21 22 22 22 22 22 23 23 23 24 25 26 27 29 30 31 32 33 33 31 29 27 24 23 23 23 22 21 20 20 18 13 11 11 11 13 17 21 25 26 26 26 26 26 26 26 26 26 25 24 24 25 26 27 27 27 27 28 28 29 29 29 28 29 29 30 31 32 33 33
16 17 17 17 17 17 17 17 18 19 19 19 20 21 21 22 22 22 22 21 21 22 22 22 23 24 26 27 28 29 30 31 32 33 34 33 31 28 26 24 24 24 23 22 22 21 19 15 12 10 10 11 16 22 26 26 25 26 26 27 27 27 26 25 24 24 25 25 26 27 27 27 26 26 27 27 27 27 28 28 28 28 28 28 28 30
17 17 17 18 17 17 18 18 19 20 20 20 21 21 21 21 21 21 21 21 21 21 21 22 23 24 25 25 25 26 26 28 30 31 31 31 30 29 26 25 24 24 24 23 22 21 21 19 18 18 18 14 15 19 23 25 26 26 26 24 23 24 26 26 25 25 25 25 25 25 25 26 27 27 28 28 28 28 29 29 29 29 29 28 26 26
17 17 18 18 18 18 18 19 20 20 21 21 21 20 20 20 20 20 21 21 21 21 21 21 22 23 24 25 24 24 24 26 27 27 28 29 29 29 27 26 25 24 24 23 22 22 22 21 21 22 22 21 21 22 24 25 26 27 26 22 22 25 27 27 26 25 25 24 24 25 26 27 29 29 28 28 28 29 29 29 30 31 31 30 28 26
17 17 18 18 18 18 19 20 20 20 20 20 20 19 19 19 19 19 20 21 21 21 21 21 21 23 24 25 25 24 23 23 23 24 25 27 27 27 27 26 25 24 24 23 23 23 23 22 21 21 22 22 21 20 21 25 27 26 25 24 24 26 27 27 25 23 23 24 25 26 27 28 28 28 28 29 30 30 30 31 32 32 31 30 29 28
17 18 18 19 19 20 20 20 20 20 19 19 19 19 19 19 19 19 20 20 21 21 22 21 21 22 23 24 25 25 24 23 22 22 23 24 25 26 26 26 26 26 25 23 22 22 23 23 22 22 23 23 21 20 20 23 25 26 25 25 24 21 17 21 24 25 25 25 26 26 26 27 27 28 29 29 30 31 31 30 30 30 30 30 29 29
18 18 18 19 19 19 20 19 19 19 19 19 19 19 19 19 19 19 20 20 20 21 21 21 21 21 21 22 24 25 25 24 22 21 21 22 23 23 24 25 26 26 25 23 22 21 22 22 23 23 23 23 21 21 21 22 23 24 25 25 24 21 17 20 24 27 27 27 27 26 26 27 29 30 30 30 29 29 28 27 28 28 29 29 29 29
17 18 19 19 19 19 19 19 19 19 19 19 19 19 20 19 19 19 19 19 20 20 20 20 19 19 19 20 22 23 24 24 24 23 21 21 21 21 22 23 23 23 23 23 22 21 21 21 22 23 24 23 22 21 21 22 23 23 24 25 24 23 24 26 26 26 26 26 27 27 28 28 29 29 30 30 29 28 26 26 26 26 27 27 27 28
18 18 18 19 19 18 19 19 19 19 19 19 19 20 20 20 19 19 19 19 19 20 20 20 18 17 17 19 20 21 22 23 23 23 23 22 21 20 20 20 20 21 22 22 23 23 23 22 23 24 24 23 22 23 23 23 22 22 23 23 23 23 24 25 25 25 25 25 26 28 28 29 29 28 28 29 29 29 26 25 25 25 26 26 27 28
18 18 18 18 18 19 19 19 19 19 19 20 20 20 20 19 19 19 19 19 19 19 20 20 18 17 18 19 19 19 20 21 22 23 24 23 23 22 21 20 20 20 21 22 22 23 24 24 25 24 22 20 20 21 22 23 22 21 22 22 22 22 23 23 24 25 25 25 26 28 29 30 30 29 28 29 28 27 26 26 26 26 26 26 27 27
18 18 19 19 19 19 19 19 19 19 19 20 20 21 21 20 20 19 19 20 19 19 19 18 18 18 19 19 20 20 20 20 21 22 23 23 23 22 21 21 20 20 21 21 22 22 23 24 25 25 24 22 19 19 21 22 22 21 21 22 22 22 22 24 25 25 26 26 27 28 29 28 27 26 27 27 26 25 27 27 27 27 27 26 25 25
18 18 19 19 19 19 19 19 19 19 19 20 21 22 22 21 21 20 19 19 19 18 17 17 18 18 18 19 20 21 21 21 21 22 22 22 22 22 22 21 21 21 22 22 21 22 22 23 23 23 23 23 22 21 21 22 22 22 21 21 21 21 22 24 25 26 26 26 27 28 28 27 26 26 25 23 22 23 26 28 28 27 27 27 26 26
18 18 18 18 18 18 19 19 19 19 19 20 21 22 22 22 21 20 19 19 18 17 17 17 18 18 18 19 20 21 21 21 21 21 22 22 22 21 21 21 21 22 22 21 21 20 20 20 20 20 20 20 21 21 21 21 21 21 21 21 21 21 22 23 25 26 26 26 27 27 27 27 27 26 24 21 19 21 24 26 28 29 29 28 28 29
18 18 18 18 18 18 19 19 19 19 20 20 21 21 21 21 21 21 20 19 18 18 18 18 18 18 18 19 20 21 21 21 20 20 21 22 21 21 21 21 20 20 18 17 16 16 14 13 13 15 17 17 16 16 17 19 20 20 20 21 21 22 22 23 25 26 26 26 26 26 25 25 25 24 23 20 17 15 17 20 25 29 30 30 29 29
Wind_Direction
298 300 301 302 302 301 299 299 299 298 298 298 298 298 298 298 298 297 297 297 296 296 295 294 293 293 292 292 292 291 291 291 291 292 292 292 292 292 291 291 291 290 290 290 290 290 290 289 289 288 288 288 288 287 287 287 287 287 286 286 285 285 284 284 283 283 282 282 281 281 280 280 280 279 278 277 276 274 274 273 273 273 273 272 271 271
300 300 301 302 301 300 299 299 298 298 297 298 298 298 299 299 299 299 298 297 297 296 296 295 294 293 292 292 292 291 292 292 292 292 293 293 292 292 291 291 291 291 290 290 290 290 290 290 290 289 289 289 288 288 287 287 286 286 285 285 284 284 283 283 282 281 281 280 280 279 279 279 279 278 277 276 275 274 273 273 272 271 271 270 269 268
301 301 301 301 301 299 299 300 299 298 297 297 298 298 298 299 299 299 299 299 298 297 296 294 294 293 293 292 292 292 293 293 293 293 293 292 292 292 292 291 291 291 291 291 291 290 290 290 289 289 288 288 287 287 286 285 285 284 284 283 283 282 282 281 281 280 280 279 279 278 278 277 276 275 274 273 272 271 270 270 269 268 267 266 266 265
300 300 300 301 300 298 298 299 299 299 297 297 297 297 298 298 298 298 298 298 298 296 295 294 293 293 293 293 294 294 294 294 294 293 293 293 292 292 292 292 291 291 291 290 290 289 289 288 288 287 287 286 286 285 285 284 284 283 283 283 282 282 281 281 280 279 279 279 278 278 278 277 276 275 273 271 270 270 269 268 267 267 267 266 265 264
296 297 299 300 300 298 297 297 298 298 297 296 296 297 298 298 298 298 297 296 296 295 295 294 294 294 294 295 295 295 295 295 295 294 294 293 293 293 292 292 291 291 290 290 289 289 289 288 288 287 287 286 286 285 284 284 284 284 284 283 282 282 281 280 280 280 279 279 279 279 279 279 278 278 277 276 275 274 272 271 270 270 269 268 267 266
294 295 296 297 297 296 297 297 296 297 297 297 296 297 297 297 297 297 296 296 295 296 296 296 296 296 296 296 296 297 297 296 296 295 294 294 293 293 292 291 291 291 290 290 290 289 289 289 288 288 287 287 286 285 285 285 285 284 284 283 283 282 282 281 281 281 281 281 281 281 281 280 280 280 280 280 280 279 278 276 275 274 272 271 270 269
293 293 293 294 294 294 294 294 295 296 297 298 298 298 296 295 295 296 295 296 296 297 297 298 298 298 297 298 298 298 298 297 297 296 295 294 294 293 292 292 291 291 291 291 290 290 290 289 289 288 287 287 286 286 285 285 285 284 284 284 284 283 283 283 283 283 283 283 282 282 281 280 280 280 279 279 279 279 279 278 277 276 275 274 273 272
293 293 292 292 292 293 294 293 293 294 295 297 298 298 297 296 297 297 297 297 298 299 300 300 300 300 299 300 300 300 299 298 297 297 296 295 294 294 293 293 292 292 291 291 291 290 290 290 289 289 288 287 287 286 286 286 285 285 285 285 285 285 285 285 285 284 284 283 283 282 281 280 279 279 278 278 277 277 277 276 276 275 274 274 273 272
289 291 291 290 290 291 294 294 293 293 293 294 295 296 298 299 300 300 300 300 301 302 302 303 302 301 301 301 300 300 298 297 296 296 296 295 295 294 294 293 293 292 292 291 291 291 291 290 290 289 289 289 288 288 287 287 287 286 286 286 286 286 285 285 284 284 284 283 283 282 281 281 280 279 278 277 277 276 275 274 274 273 273 272 272 271
286 287 288 288 287 287 289 292 294 294 293 292 292 294 297 300 302 303 303 303 303 304 303 303 302 302 302 301 300 299 298 297 296 295 294 294 293 293 293 293 293 292 292 292 292 292 291 291 291 290 290 289 289 288 288 287 287 287 286 286 285 285 285 284 284 284 283 283 283 282 282 281 280 280 279 278 277 275 275 273 272 272 271 271 270 270
286 285 285 286 287 287 285 287 291 295 296 297 296 296 297 299 302 304 305 305 305 305 304 302 301 301 301 301 301 300 299 298 297 296 295 294 294 293 293 293 293 293 293 293 293 293 292 292 291 291 290 290 289 288 288 287 287 286 286 285 285 285 284 284 284 284 284 283 283 283 282 281 280 280 279 278 277 275 274 273 272 271 270 269 269 268
285 285 285 286 289 290 290 291 294 298 301 302 302 301 301 301 302 304 304 304 305 305 304 302 301 300 299 299 299 299 299 298 297 297 297 297 297 296 296 295 295 295 295 295 295 294 293 293 292 291 291 290 289 288 288 287 286 286 286 285 285 284 284 284 284 284 283 283 283 282 281 280 279 278 277 276 275 274 272 271 270 269 268 267 267 266
283 284 285 287 292 296 299 301 302 303 303 303 303 302 302 303 303 303 302 302 302 302 303 302 300 299 298 298 298 297 297 297 297 297 298 298 298 299 299 298 297 297 297 297 296 295 294 294 293 292 291 290 289 288 287 286 286 286 286 285 285 284 284 284 284 283 283 282 282 281 280 279 278 277 276 274 273 272 271 270 269 268 267 266 266 265
286 290 293 296 299 301 303 303 303 302 302 301 300 300 301 302 303 303 302 300 300 300 301 300 299 298 298 298 297 297 297 297 297 298 298 297 298 298 299 298 297 297 298 297 295 294 294 294 293 292 291 289 288 288 287 287 286 286 286 286 285 285 285 284 284 283 283 282 282 281 280 280 279 278 277 276 275 274 273 272 271 270 269 268 267 266
298 304 305 304 302 302 301 301 300 299 298 298 299 299 300 301 302 302 301 300 299 300 300 299 298 298 298 298 299 299 298 298 298 298 297 297 297 299 299 298 297 296 296 295 294 293 294 293 292 291 290 289 288 288 288 288 288 287 287 287 286 286 286 286 285 285 284 284 283 283 282 281 280 279 279 278 277 276 275 274 273 272 271 269 268 267
306 306 303 301 300 299 298 298 297 296 297 298 299 300 301 301 301 301 300 298 298 299 300 300 300 300 300 300 301 302 301 300 299 298 298 297 298 299 299 298 297 296 295 294 293 293 294 293 292 291 290 289 289 289 289 289 289 288 288 288 288 288 288 287 287 286 286 285 284 283 283 282 281 280 279 278 277 276 275 274 273 272 271 270 269 268
303 301 299 298 297 296 296 296 295 295 297 298 299 300 300 299 299 299 297 297 297 297 298 299 299 300 303 304 304 304 304 302 300 298 298 297 297 298 299 297 295 294 294 294 293 293 294 293 292 291 290 290 290 290 290 290 290 290 290 289 289 288 288 287 287 286 285 285 284 283 283 282 281 280 279 278 277 276 275 274 273 271 270 269 268 267
298 297 296 295 295 295 296 296 296 296 297 298 299 299 299 297 296 295 294 294 294 294 296 298 299 300 302 304 303 304 305 304 301 300 298 297 297 298 298 296 294 293 293 293 293 293 293 292 291 290 290 290 291 291 291 291 291 290 290 289 289 289 288 288 287 287 286 286 285 284 283 283 282 281 280 279 278 277 275 274 273 272 270 269 268 266
294 294 294 294 294 295 295 296 296 297 297 298 299 300 298 296 294 293 291 292 292 294 297 299 300 299 298 297 299 301 304 304 302 300 298 296 296 297 298 296 294 293 292 293 293 294 293 292 291 290 290 290 291 291 291 291 291 291 290 290 290 290 290 289 289 288 288 287 286 285 284 283 282 281 281 280 279 277 276 275 274 273 271 270 269 267
292 293 292 293 294 294 294 293 293 295 296 298 298 297 295 293 292 291 290 292 295 297 299 299 298 297 296 295 296 299 302 303 301 298 296 295 295 296 298 297 294 293 293 293 294 294 294 293 292 291 291 291 291 292 292 292 292 292 292 291 291 291 290 290 289 288 288 287 286 285 284 283 282 282 281 280 278 277 276 275 274 273 272 271 270 269
291 291 290 291 291 291 291 291 292 293 295 296 295 293 291 290 291 292 296 299 301 301 300 297 294 294 294 294 295 297 299 300 298 296 295 294 294 295 297 297 295 293 293 294 294 294 294 294 293 293 293 293 292 293 293 293 293 292 292 292 291 290 290 289 288 288 287 287 286 285 284 283 283 282 281 280 279 277 276 275 274 274 273 272 271 269
289 289 289 289 288 287 287 289 291 292 293 292 291 289 289 292 297 301 303 304 302 300 297 293 292 291 292 291 292 293 295 295 293 292 293 294 294 294 297 297 296 294 293 294 296 296 296 296 295 295 294 294 293 293 293 293 292 292 292 291 291 291 290 290 289 289 288 287 287 286 285 284 283 282 281 279 278 277 276 275 274 273 272 271 270 269
287 287 287 287 286 286 287 289 290 290 290 289 288 289 294 300 303 303 302 301 298 295 293 291 290 290 289 288 289 291 292 292 292 291 292 290 291 294 298 299 297 295 294 295 298 300 300 298 297 296 295 294 294 293 293 293 292 292 292 292 292 292 291 291 291 290 289 288 287 287 285 284 283 282 281 279 278 277 276 275 274 273 272 271 270 268
286 286 286 287 287 287 287 288 288 288 290 292 295 298 301 301 300 298 297 295 293 291 290 290 290 290 289 289 290 292 293 294 294 293 292 290 291 294 298 299 298 296 295 297 300 302 301 299 298 297 296 295 294 294 293 293 293 293 293 293 293 292 292 291 291 291 290 289 288 287 286 285 284 283 282 281 280 278 277 276 275 273 272 271 270 269
285 285 285 286 286 286 287 287 288 290 294 298 301 302 301 299 297 295 293 292 291 290 290 290 290 290 291 293 294 295 295 297 296 294 292 290 291 294 297 299 298 297 298 300 302 302 301 300 298 298 297 296 295 295 294 293 293 293 293 293 293 292 292 291 291 291 290 290 289 289 288 287 286 285 283 282 281 280 279 277 276 275 274 272 271 270
283 283 283 285 286 287 288 289 291 294 297 299 299 299 299 299 298 296 294 292 291 291 291 291 290 291 294 296 296 296 297 298 298 295 291 291 292 293 296 299 299 298 299 301 302 302 301 300 299 299 298 297 296 295 295 294 294 294 294 294 293 292 291 291 290 290 289 289 289 288 287 287 286 284 284 283 282 280 279 278 277 276 275 274 273 272
285 285 286 287 288 290 292 294 296 297 297 297 297 297 298 298 298 296 293 291 292 293 293 292 292 294 295 296 296 296 298 300 299 296 292 291 291 292 296 300 301 301 301 302 302 302 300 299 298 298 297 296 296 296 296 296 296 296 295 294 293 292 291 290 289 288 287 287 286 286 286 285 284 283 283 283 282 281 280 278 277 276 275 275 274 272
291 291 291 292 293 295 296 297 297 297 297 297 297 297 297 297 295 292 290 292 294 294 292 291 291 293 295 296 297 298 299 299 298 297 296 294 291 292 297 301 303 303 303 303 303 302 299 297 295 296 296 296 297 298 298 299 299 298 296 294 293 291 290 289 288 287 286 286 285 285 285 284 283 283 283 283 283 282 280 279 278 277 276 275 273 271
297 297 297 297 298 299 299 298 298 297 297 297 296 296 295 293 290 287 288 291 292 292 290 290 290 291 293 295 297 298 298 297 297 300 303 300 295 293 298 302 303 304 305 305 305 304 301 298 296 296 297 298 300 300 300 300 300 298 297 296 294 293 291 290 289 288 287 287 286 286 286 284 283 283 283 283 283 282 282 281 280 279 277 275 273 270
304 303 302 302 301 301 300 299 298 297 297 296 296 295 293 289 285 284 286 288 288 287 287 289 290 291 293 296 297 297 297 297 300 305 308 304 298 296 300 302 303 304 306 308 308 306 303 301 300 300 300 301 301 301 301 301 300 299 298 297 295 293 292 291 291 290 290 289 288 287 287 287 286 285 284 283 282 282 282 281 281 279 278 276 273 271
307 307 306 304 303 302 301 300 299 298 297 297 297 295 293 289 285 283 284 284 283 283 285 287 289 291 292 294 295 292 294 297 300 305 307 302 296 296 300 301 302 303 304 305 305 305 305 305 305 304 304 303 302 301 300 300 299 299 298 298 296 294 293 293 292 292 292 291 290 289 288 288 287 286 285 284 283 282 281 281 280 279 277 276 274 271
308 306 305 304 303 302 301 300 300 299 299 299 298 296 294 291 287 285 283 282 281 280 282 285 287 288 288 287 285 283 286 293 297 301 303 299 295 296 299 299 300 301 301 299 296 294 299 305 306 306 306 305 303 301 301 300 299 298 298 297 296 295 295 295 295 295 294 293 292 291 290 288 287 286 285 284 283 283 282 281 279 278 277 275 273 271
306 304 303 302 302 302 301 301 300 300 300 299 298 297 295 292 289 287 284 282 281 280 280 283 285 286 286 284 283 282 285 289 293 297 299 298 296 296 298 299 299 299 300 298 294 291 289 291 299 302 304 304 303 302 301 301 299 298 297 297 296 295 296 297 297 296 295 294 293 292 291 289 288 287 286 284 284 283 282 281 280 278 276 274 271 269
304 303 303 303 302 302 301 301 301 301 299 299 298 297 296 294 291 289 287 284 283 281 280 281 282 283 284 284 283 284 286 288 291 295 298 298 296 295 297 298 298 298 299 298 296 294 291 291 294 298 301 302 302 302 301 301 300 299 297 296 296 296 296 297 297 296 295 295 293 292 291 290 289 288 287 285 284 283 282 281 280 279 277 274 272 269
303 303 303 303 303 303 303 302 302 301 301 300 299 298 297 296 294 292 290 288 286 284 282 280 278 278 279 280 281 283 285 288 291 294 296 295 293 293 294 295 296 297 297 296 296 296 294 293 294 296 298 301 301 301 301 301 301 300 299 297 296 295 294 295 295 294 294 294 292 291 291 290 289 289 288 286 285 284 283 282 280 279 277 276 274 271
303 303 303 303 303 304 304 304 304 303 302 301 300 300 299 298 296 294 293 291 289 287 284 281 278 276 275 274 275 277 280 284 289 292 292 290 289 289 290 292 293 293 292 292 293 293 293 294 295 296 296 296 298 300 301 302 303 302 300 298 296 295 294 294 293 293 293 292 291 291 291 290 290 289 288 287 286 285 284 283 281 280 278 277 275 272
303 302 303 304 304 305 304 304 304 304 304 303 302 301 300 300 298 296 294 292 290 289 287 283 280 277 274 272 272 274 277 281 285 287 287 286 286 285 285 286 289 289 288 288 289 290 291 292 294 294 295 291 292 298 301 303 304 303 300 299 298 297 296 295 294 292 291 290 290 290 290 290 290 290 290 289 289 288 286 284 283 281 279 278 276 274
302 302 303 304 305 305 305 305 304 304 304 303 302 301 301 300 298 297 295 293 290 289 289 286 284 282 280 277 276 276 278 279 281 283 284 284 283 282 281 282 284 284 283 282 283 285 288 288 290 291 291 292 293 294 297 300 301 301 300 300 299 298 296 295 294 293 291 290 290 290 290 290 290 290 290 290 290 289 287 286 284 282 280 279 277 274
303 303 304 305 305 305 304 303 303 303 303 302 301 300 299 298 298 297 296 294 292 291 290 288 287 286 285 284 282 281 280 280 281 283 283 283 282 280 280 280 281 282 281 280 279 280 282 282 284 286 289 292 294 295 295 296 297 298 299 300 300 298 296 295 295 295 293 292 291 291 291 291 290 290 290 291 291 290 289 288 287 285 283 281 278 276
304 303 303 304 304 303 303 302 302 302 302 301 300 299 298 298 299 300 299 297 296 295 294 292 291 290 289 288 286 285 283 283 283 284 284 283 282 280 278 278 278 279 280 280 278 277 278 278 280 282 285 286 289 292 293 294 294 295 298 300 299 298 297 297 297 295 293 292 290 290 291 292 293 293 292 291 290 289 289 288 288 287 285 282 279 277
304 304 304 304 304 303 302 301 301 301 301 301 300 299 299 299 300 302 302 302 301 300 299 299 298 296 295 293 291 289 287 286 285 284 284 284 283 281 279 277 276 277 278 279 278 277 277 277 279 281 283 284 285 287 289 290 291 293 295 294 294 294 296 296 295 294 293 293 292 293 293 294 295 294 292 290 288 287 287 286 285 285 284 281 277 274
303 303 304 304 304 304 303 302 302 302 301 300 299 298 297 299 299 300 302 304 304 304 303 303 302 301 300 299 298 296 293 291 288 287 287 287 286 283 280 277 276 276 276 277 277 278 278 277 278 279 281 283 285 286 288 289 290 292 292 291 292 294 296 297 297 296 296 296 296 296 296 295 295 293 292 291 290 289 287 285 283 282 281 279 276 273
303 303 303 304 304 303 303 303 303 303 302 301 299 298 297 298 298 299 300 300 301 303 304 303 302 302 301 301 302 302 301 298 295 292 291 290 288 285 282 279 278 276 275 275 276 278 280 280 280 279 281 282 283 284 286 288 290 291 290 290 292 294 297 299 301 301 301 299 298 297 296 295 295 295 294 293 292 291 289 287 284 282 280 278 276 275
303 302 303 304 304 304 304 304 304 304 303 301 300 299 299 299 298 298 298 298 298 299 301 301 302 301 300 300 302 304 304 304 302 299 295 293 291 289 286 283 281 279 275 273 274 279 282 284 283 283 283 283 283 283 284 286 287 289 289 289 289 288 288 293 298 301 302 301 300 299 297 297 298 299 298 296 295 293 292 290 288 286 284 282 280 279
303 303 304 305 305 305 304 304 304 304 303 301 300 300 301 301 300 299 298 297 297 298 299 300 301 301 300 300 301 303 305 306 306 305 303 300 298 296 291 287 284 281 278 275 274 276 279 283 284 286 286 285 282 281 281 283 284 286 287 288 287 286 286 290 294 297 299 300 299 299 300 300 300 301 301 301 300 298 296 293 292 290 289 287 285 283
305 305 305 306 305 305 304 304 304 304 304 303 302 302 302 303 302 300 299 298 297 298 299 300 299 298 297 299 301 302 304 306 307 308 308 306 304 300 296 290 287 284 282 279 278 277 276 277 280 283 286 286 283 281 279 280 282 284 286 288 290 291 292 294 295 296 297 298 299 300 301 303 304 304 303 303 303 302 299 297 294 293 292 291 290 287
306 306 305 305 305 305 304 304 305 305 305 304 304 304 304 303 303 302 301 299 298 298 299 300 298 295 294 296 298 299 301 303 304 306 308 308 307 306 302 297 293 289 286 283 281 280 278 276 276 277 278 281 282 282 281 280 281 282 285 289 292 294 295 296 297 298 298 298 299 301 303 306 307 307 305 304 304 304 304 303 301 299 297 295 294 292
306 306 305 305 305 305 304 305 305 305 305 304 304 304 305 304 304 303 301 300 299 298 299 299 298 296 296 296 297 298 299 300 301 303 305 307 307 307 306 303 300 297 293 290 287 284 282 279 276 274 272 272 274 277 280 281 281 282 284 288 292 294 294 296 298 300 300 299 299 300 303 305 305 304 304 305 306 307 309 309 308 306 304 302 299 297
304 305 305 304 304 304 304 305 305 305 305 304 305 306 306 306 305 303 301 300 299 298 297 297 297 297 297 297 298 299 300 300 301 302 303 305 307 308 307 307 305 304 303 300 296 294 291 288 284 277 270 266 266 270 274 278 280 282 284 287 290 292 294 297 299 301 302 302 301 301 302 302 301 300 300 303 306 308 310 312 312 312 311 309 307 305
304 303 304 303 303 303 303 304 305 305 304 304 304 304 305 306 306 304 302 300 299 297 296 295 295 296 296 297 298 300 301 301 301 302 303 304 306 307 307 307 308 309 309 308 306 305 304 302 298 291 280 269 263 264 269 276 282 285 287 288 291 293 295 297 300 302 303 303 303 303 302 302 303 302 301 302 305 308 310 313 314 315 315 314 312 310
305 304 304 303 303 302 302 302 303 303 302 302 302 302 302 303 304 304 304 302 301 299 297 296 295 295 295 296 297 299 300 300 300 300 302 304 305 305 306 306 308 309 310 311 311 311 311 310 309 306 302 291 278 269 273 281 289 292 293 294 295 296 297 298 301 303 304 304 304 303 303 303 304 305 306 305 306 307 310 313 315 316 316 315 314 312
Height
750 749 748 747 746 744 742 742 741 739 737 735 734 733 732 730 729 728 727 725 724 722 721 719 717 716 714 713 712 710 709 708 706 705 703 702 701 700 698 697 696 694 693 692 691 689 688 687 686 685 683 682 681 680 679 678 677 676 675 674 673 672 672 671 670 669 668 667 667 666 665 664 663 663 662 662 661 661 660 659 659 658 657 657 657 657
749 748 747 747 745 743 741 740 740 739 736 734 732 732 730 729 727 726 725 723 722 721 719 717 716 714 712 711 709 708 707 705 704 702 701 700 698 697 696 694 693 692 691 689 688 687 685 684 683 682 681 679 678 677 676 675 674 673 672 671 670 669 669 668 667 666 665 664 663 663 662 661 661 660 659 658 658 657 657 656 656 655 655 654 654 653
749 747 746 745 745 743 740 738 737 737 735 733 731 730 729 727 726 724 723 722 721 719 718 716 714 712 710 708 707 705 704 703 702 700 699 697 696 695 693 692 691 689 688 687 685 684 683 682 680 679 678 677 675 674 673 672 671 670 669 668 667 667 666 665 664 663 662 661 660 660 659 658 657 657 656 655 655 654 653 653 652 652 651 651 650 650
749 747 745 744 743 742 740 738 736 735 733 732 730 728 727 726 724 723 722 720 719 717 716 714 712 710 708 706 704 703 702 701 699 698 697 695 693 692 691 689 688 687 685 684 682 681 680 679 677 676 675 673 672 671 670 669 668 667 666 665 664 663 662 662 661 660 659 658 657 656 656 655 654 653 652 652 651 650 650 649 648 647 647 647 646 646
749 747 745 743 742 739 738 737 735 733 732 730 728 727 725 724 723 722 720 719 717 715 713 712 710 708 706 704 702 701 700 698 697 696 694 692 691 690 688 687 685 684 682 681 680 678 677 676 674 673 672 670 669 668 667 666 665 664 663 662 661 660 659 658 657 657 656 655 654 653 652 652 651 650 649 648 647 647 646 646 645 644 644 643 643 643
748 747 745 743 741 738 737 735 733 732 730 728 727 726 724 722 721 720 718 717 715 713 711 709 708 706 704 702 701 699 697 696 695 693 692 690 689 687 686 684 682 681 680 678 677 676 674 673 671 670 668 667 666 665 664 663 662 661 660 658 657 657 656 655 654 653 652 652 651 650 649 648 647 647 646 645 644 644 643 642 642 642 641 641 640 640
746 745 744 742 739 737 735 733 732 731 728 726 725 724 723 722 720 718 716 715 713 711 709 707 706 704 702 701 699 697 696 694 692 691 689 688 686 685 683 682 680 678 677 676 674 673 671 670 668 667 666 664 663 662 661 660 658 657 657 655 654 653 652 652 651 650 649 648 647 647 646 645 644 644 643 642 642 641 640 640 639 638 638 637 637 637
744 742 742 741 738 735 733 732 731 730 728 725 723 722 721 719 718 716 714 712 711 709 707 705 703 702 701 699 698 696 694 692 690 688 687 685 684 682 680 679 677 676 674 673 671 670 668 667 665 664 662 661 660 659 658 657 655 654 653 652 651 650 649 648 647 647 646 645 644 643 642 642 641 641 640 639 639 638 637 637 636 636 635 634 634 633
744 741 739 738 737 734 731 728 728 728 727 726 723 721 719 717 715 713 712 710 709 707 706 704 702 700 699 698 697 695 693 691 689 687 685 683 681 680 678 676 674 673 671 670 668 667 666 664 662 661 660 658 657 656 655 654 652 651 650 649 648 647 646 645 644 644 643 642 641 640 640 639 638 637 637 636 636 635 635 634 633 633 632 632 631 631
743 741 738 736 734 733 731 727 726 726 726 725 723 721 719 716 712 710 709 707 707 706 705 703 701 699 697 696 695 693 691 689 687 685 683 681 679 677 676 674 672 670 668 667 666 664 662 661 660 658 657 656 654 653 652 651 650 649 647 647 646 644 643 642 642 641 640 639 638 637 637 636 635 634 634 633 632 632 632 631 631 630 630 629 629 628
741 739 737 734 732 731 730 728 726 725 724 723 721 719 718 716 713 710 707 705 704 704 703 702 701 699 697 694 693 691 689 687 684 682 680 679 677 675 673 672 670 668 666 664 663 661 660 658 657 656 654 653 652 651 649 648 647 646 645 644 643 642 641 640 639 638 637 636 635 634 634 633 632 632 631 630 630 629 628 628 627 627 627 626 626 625
738 736 734 732 731 729 728 727 725 724 723 721 718 716 715 714 713 711 708 705 703 702 702 700 699 698 696 694 692 689 687 685 682 679 677 676 675 673 671 669 667 665 664 662 660 659 657 656 655 653 652 650 649 648 647 645 644 643 642 641 640 639 638 637 636 635 634 633 632 632 631 630 629 628 628 627 627 626 625 625 624 624 623 623 622 622
737 735 733 731 730 729 727 726 724 722 721 720 718 715 713 712 712 710 708 706 704 702 701 699 697 695 694 693 691 688 686 683 680 677 676 674 672 671 669 667 665 663 662 660 657 656 655 653 652 650 649 647 646 645 644 642 642 640 639 638 637 636 635 634 633 632 631 630 629 628 627 627 626 625 624 624 623 622 622 621 621 620 620 619 619 618
735 733 732 730 729 728 727 725 723 721 720 719 717 715 713 711 710 709 707 705 703 702 700 697 695 693 692 691 689 687 685 682 678 676 673 672 671 670 668 666 663 661 660 658 655 653 652 651 649 647 646 645 643 642 641 640 639 638 637 635 634 633 632 631 630 629 628 627 626 625 624 623 622 622 621 620 619 619 618 617 617 616 616 616 615 615
734 733 731 729 728 727 726 725 723 721 719 717 716 714 712 711 710 708 707 704 702 700 698 696 693 691 689 688 687 686 684 681 677 674 672 670 669 669 667 665 662 659 658 656 653 651 650 649 647 645 643 642 641 640 638 637 636 635 634 632 632 630 629 628 627 626 625 624 623 622 621 620 619 618 617 617 616 615 614 614 613 613 612 612 612 611
734 733 731 729 727 726 725 724 722 719 717 716 715 713 712 710 709 707 706 704 701 699 697 694 691 688 686 685 685 685 683 680 677 673 671 668 667 667 666 664 660 657 655 654 652 649 648 647 645 643 641 639 638 637 636 635 634 632 631 630 629 627 627 625 624 623 622 621 620 619 617 617 616 615 614 613 612 612 611 610 610 609 609 608 608 608
734 732 731 729 727 725 723 722 721 718 716 715 714 712 711 710 708 707 705 703 701 698 696 694 691 687 683 681 682 682 682 679 676 673 670 667 665 665 665 663 659 656 653 651 650 648 646 644 642 641 639 637 636 635 634 632 631 630 628 627 626 625 623 622 621 620 619 617 617 615 614 613 612 611 611 610 609 608 607 607 606 606 605 605 604 604
733 732 730 728 726 723 722 720 719 717 716 714 713 712 710 709 707 706 704 702 700 697 695 693 691 688 684 681 679 679 680 678 675 672 669 666 663 662 662 661 658 654 651 649 647 646 644 642 640 638 637 635 634 632 631 630 628 627 626 624 623 622 620 619 618 617 615 614 613 612 611 610 609 608 607 606 605 604 604 603 602 602 601 601 600 600
732 731 729 727 724 722 721 719 718 717 715 714 712 711 709 707 706 704 702 701 699 697 695 692 690 688 686 682 679 678 678 677 674 671 668 664 662 660 660 658 656 652 649 647 646 644 642 640 638 636 634 633 631 630 628 627 626 624 623 621 620 618 617 616 615 613 612 611 610 608 607 607 605 604 603 602 602 601 600 599 598 598 597 597 596 596
730 729 727 726 723 722 720 718 717 716 715 713 712 710 708 706 704 702 701 699 697 696 694 692 690 687 685 682 679 677 677 676 674 670 667 663 660 658 657 656 653 650 647 645 644 642 640 638 636 634 632 630 629 627 626 624 623 622 620 618 617 616 614 613 612 610 609 607 607 605 604 603 602 601 600 599 598 597 596 596 595 594 593 593 592 592
728 727 726 725 723 721 719 717 716 715 714 713 711 709 707 704 702 701 699 698 696 695 693 692 689 686 684 681 678 676 676 675 673 669 665 661 658 656 655 654 652 648 645 643 642 640 638 636 634 632 630 628 626 625 623 622 620 619 617 616 614 612 611 610 608 607 606 604 603 602 601 600 598 597 597 595 594 593 592 592 591 590 590 589 588 588
727 725 724 723 722 720 718 716 715 714 713 712 710 707 705 703 701 699 698 697 696 694 692 690 687 685 683 681 678 675 675 674 672 669 665 660 656 653 653 652 650 647 644 641 639 638 636 634 632 629 627 625 624 622 621 619 617 616 614 613 611 610 608 607 605 604 602 601 600 599 597 596 595 594 593 592 591 590 589 588 587 587 586 585 585 584
727 724 722 722 720 719 717 715 713 712 711 710 708 706 704 702 701 699 697 696 695 693 690 688 686 684 682 679 677 674 673 672 671 668 665 660 655 652 652 651 649 646 642 640 638 636 634 632 630 627 625 623 621 619 618 616 615 613 612 610 608 607 605 604 602 601 600 598 597 596 594 593 592 591 590 588 587 587 585 585 584 583 582 581 580 580
725 723 721 720 718 717 715 714 712 710 709 708 706 705 703 702 701 699 697 696 694 691 689 687 684 682 679 677 675 672 671 670 669 667 664 660 655 652 650 649 647 644 640 638 637 635 632 630 627 625 622 620 618 617 615 613 612 611 609 607 606 604 603 601 600 598 597 595 594 592 591 590 588 587 586 585 584 583 582 581 580 579 578 577 576 575
723 721 719 718 716 715 714 712 710 709 707 706 705 703 702 701 699 697 696 694 692 690 687 685 682 680 677 675 673 671 669 668 668 666 663 659 654 651 649 648 646 642 639 637 636 634 631 628 625 622 620 617 616 614 612 611 609 608 607 605 603 602 600 599 597 596 594 592 591 589 588 587 585 584 583 582 580 579 578 577 576 575 574 573 572 572
721 719 717 716 714 713 712 710 709 707 707 706 704 703 701 699 697 696 694 692 690 689 687 684 681 678 676 674 672 669 667 667 666 665 662 658 654 650 647 647 645 642 638 635 634 632 630 626 622 620 618 615 613 611 610 608 607 605 604 602 601 599 597 596 594 592 591 589 588 586 585 583 582 581 579 578 577 576 575 573 572 571 570 570 568 567
718 717 715 714 712 711 710 708 707 706 705 704 703 702 700 698 697 694 692 691 689 688 686 683 680 677 675 673 671 668 666 665 664 662 661 658 654 649 647 646 644 642 638 634 632 630 628 625 621 618 615 613 611 609 607 606 605 603 602 600 598 596 595 593 591 590 588 586 585 583 582 580 579 577 576 575 573 572 571 570 569 568 567 566 565 563
716 714 713 712 711 709 708 707 706 704 703 702 701 700 699 698 696 693 691 689 688 687 685 682 680 677 674 672 669 667 665 663 662 661 659 657 653 649 647 645 644 641 638 633 630 627 626 623 620 617 613 611 609 607 605 604 602 601 599 597 595 593 592 590 588 587 585 583 582 580 579 577 576 574 572 571 570 569 567 566 565 564 563 562 561 559
714 712 711 710 709 708 707 705 704 702 701 700 699 699 698 697 695 692 690 689 688 686 684 682 679 677 674 671 668 666 663 662 660 659 658 656 652 649 647 645 643 641 638 633 628 624 622 621 618 616 612 610 608 606 604 602 600 598 596 594 592 590 589 587 585 584 582 581 579 577 576 574 572 571 569 568 567 565 564 563 562 561 560 558 557 555
712 711 710 708 707 706 705 703 702 701 699 698 697 697 696 695 693 692 690 688 687 685 683 681 678 676 674 671 668 665 661 659 658 658 657 655 652 648 646 645 643 641 639 635 629 622 617 616 615 614 612 609 607 605 602 600 598 596 593 591 589 587 586 584 582 581 579 578 576 574 573 571 569 568 567 565 563 562 561 559 558 558 556 555 553 551
711 709 708 707 706 704 703 702 700 699 698 697 696 695 694 693 692 690 689 687 686 684 682 680 677 676 674 672 669 664 660 657 657 657 657 655 651 648 646 644 642 640 639 637 633 626 617 612 610 611 611 608 606 603 601 599 597 594 592 589 587 584 583 581 580 578 577 575 573 572 570 568 567 565 563 562 560 559 557 556 555 554 553 551 549 547
710 708 707 706 704 703 702 700 699 697 696 695 694 693 692 691 690 689 687 686 685 683 681 679 677 675 673 672 669 665 660 657 656 656 656 654 651 647 646 644 641 639 638 637 636 631 624 615 609 607 607 607 604 602 599 597 595 593 590 588 585 582 580 579 577 576 574 572 570 568 567 565 563 562 560 558 557 555 554 553 552 551 550 548 546 544
709 707 706 704 703 702 700 699 697 696 695 694 692 692 690 689 688 687 686 684 683 682 680 678 676 674 672 670 667 664 660 657 655 655 655 653 650 647 645 643 641 638 636 635 633 631 627 620 614 609 606 604 602 600 597 595 593 591 589 587 583 581 578 577 575 573 571 569 567 565 563 562 560 558 557 555 553 552 551 549 548 547 546 545 543 541
708 706 705 703 702 700 699 698 697 695 694 692 691 690 689 687 686 685 684 682 681 680 678 677 675 673 670 668 665 662 658 655 654 653 653 652 650 647 644 642 640 637 635 632 631 628 625 621 617 612 607 602 599 597 596 594 592 589 587 585 582 579 577 575 573 571 569 567 565 562 560 558 556 554 553 551 550 548 547 545 544 543 542 541 539 537
707 705 704 702 701 699 698 696 695 694 692 691 690 689 687 686 685 683 682 681 679 678 677 675 673 672 669 667 664 660 656 653 652 652 652 651 649 646 643 641 639 637 634 631 629 626 623 619 616 613 608 603 598 595 593 592 590 588 586 584 581 579 576 574 572 569 567 565 562 560 558 556 553 552 549 547 546 544 543 542 540 539 538 537 536 534
706 704 702 701 700 698 697 695 694 692 691 690 689 687 686 685 683 682 680 679 677 676 674 673 671 669 667 665 662 659 655 652 650 650 650 649 647 645 642 639 637 636 634 631 628 625 622 618 614 612 609 604 598 593 590 589 588 586 584 582 579 577 575 572 570 568 565 563 560 557 555 553 551 549 547 544 543 541 539 538 537 535 533 532 531 530
705 703 702 700 699 697 696 694 693 692 690 688 687 686 685 683 682 680 678 677 675 673 672 670 668 666 664 662 660 657 654 651 649 648 647 647 645 644 641 638 636 634 633 630 627 624 621 617 613 610 607 604 599 594 590 587 585 584 582 580 577 575 572 570 568 567 564 561 558 556 553 551 549 547 544 541 539 537 536 534 532 531 529 527 526 525
704 702 700 699 698 697 695 693 692 691 689 687 686 684 683 681 680 678 676 674 673 671 669 667 665 663 661 659 657 655 652 650 648 646 645 644 643 642 639 637 634 632 631 629 626 623 621 617 613 609 605 601 598 595 591 588 585 582 579 577 576 574 571 568 566 564 562 559 557 554 551 549 547 544 541 539 536 534 532 529 527 526 524 523 521 519
703 701 700 698 697 696 694 693 691 690 688 687 685 683 682 680 678 676 674 672 671 669 667 665 663 660 658 656 654 652 650 648 646 644 642 641 640 639 637 635 632 630 628 627 624 622 620 617 613 609 605 601 597 593 590 588 585 582 578 576 573 571 569 567 565 562 560 557 555 552 549 547 544 542 539 536 534 532 529 526 524 522 521 519 516 514
702 700 699 697 696 695 694 692 690 689 687 685 683 682 680 678 676 674 672 671 669 667 665 663 661 658 656 654 652 650 648 646 643 642 640 638 637 636 635 633 630 628 626 624 622 620 618 615 612 608 605 602 597 593 589 586 584 581 579 576 572 568 566 564 562 560 558 555 553 550 547 544 542 540 537 534 532 529 527 524 521 519 517 516 513 510
701 699 698 696 695 694 692 691 689 688 686 684 682 680 679 677 675 672 670 668 667 665 663 661 659 656 653 651 649 647 645 643 641 639 637 636 634 633 632 630 628 626 623 621 619 617 616 613 610 607 603 600 597 593 589 585 582 580 579 576 571 567 564 562 560 558 556 553 551 548 546 542 540 537 534 531 528 526 524 522 519 516 514 512 510 507
700 699 697 696 694 693 691 690 688 687 685 683 681 679 677 676 674 672 670 667 665 663 661 659 657 654 651 648 646 644 642 641 639 637 635 633 632 631 629 627 625 623 621 619 617 615 612 611 608 605 602 599 596 592 587 583 581 579 577 574 571 566 562 559 557 556 554 551 548 546 544 541 537 534 531 528 525 522 520 518 515 513 510 508 506 504
700 698 697 695 693 692 690 688 687 685 683 682 680 678 677 675 673 671 669 667 664 662 660 658 656 653 650 647 643 641 639 638 637 635 633 631 630 628 627 625 623 621 619 617 614 612 609 608 606 603 600 597 594 591 587 582 579 577 575 573 570 567 562 557 554 553 552 549 547 544 541 538 535 531 528 525 522 519 516 514 512 509 507 504 502 500
699 697 696 694 692 691 689 687 686 684 682 681 679 677 675 673 672 670 668 666 663 661 659 657 655 652 650 646 642 639 637 635 634 632 631 629 628 626 624 622 620 619 617 615 613 610 607 605 602 600 598 596 593 590 586 582 578 575 572 571 569 567 562 557 554 551 549 547 544 542 539 536 533 529 525 522 519 516 513 511 508 506 503 501 499 497
698 697 695 693 692 690 688 687 685 683 681 679 677 676 674 672 671 669 667 665 662 660 658 656 654 652 648 645 642 639 636 633 631 630 628 627 626 624 622 620 618 617 615 613 611 608 606 603 600 597 595 593 591 588 584 581 577 574 571 568 566 564 560 557 554 551 548 545 542 539 537 534 531 527 523 519 516 513 511 508 505 502 500 498 496 493
698 696 694 692 691 689 687 686 684 682 680 678 676 674 673 671 669 668 666 664 662 659 657 655 653 651 648 644 641 638 635 632 629 627 626 624 623 622 620 618 617 614 612 610 608 606 604 602 598 596 593 591 588 585 582 579 576 572 568 566 564 561 558 555 552 550 547 544 540 537 534 532 529 526 522 517 513 510 507 505 503 500 497 495 492 490
697 695 694 692 690 688 687 685 683 681 679 677 675 673 672 670 668 666 664 662 661 658 656 654 652 650 647 644 641 638 635 632 628 626 624 622 620 619 617 616 614 612 610 608 606 603 601 599 597 594 592 589 585 582 578 576 574 571 567 565 562 559 556 553 550 548 546 543 539 536 533 531 527 524 519 515 511 508 505 502 500 497 495 492 489 487
697 695 693 691 689 687 686 684 682 681 679 677 674 672 670 669 667 665 663 661 659 657 655 653 650 648 645 642 640 637 635 632 628 625 623 621 618 617 615 613 612 610 607 606 603 601 598 596 594 592 590 587 584 580 576 573 572 569 567 564 561 558 555 551 548 546 544 541 538 535 533 530 527 522 517 513 509 505 502 499 497 494 492 490 487 484
696 694 692 691 689 687 685 683 682 680 678 676 673 671 669 667 666 664 662 660 658 656 654 652 649 647 644 641 638 635 633 630 627 625 622 620 617 615 613 611 609 607 605 603 600 598 596 593 591 589 587 585 582 578 574 572 569 567 565 563 560 557 553 550 547 544 542 539 536 533 532 529 526 522 518 513 508 504 500 497 494 492 489 487 485 482
695 693 692 690 688 686 684 683 681 679 677 675 672 670 668 666 664 662 661 659 657 655 652 650 648 645 642 639 637 634 632 629 626 623 621 619 617 614 612 610 608 605 602 600 597 595 592 589 587 584 583 582 580 577 574 571 568 566 563 561 558 556 552 549 545 543 541 538 535 532 529 527 524 521 518 513 509 504 499 496 492 489 487 484 482 479
694 692 691 689 687 686 684 682 680 678 676 674 672 669 667 665 662 661 659 657 655 653 651 649 647 644 641 638 635 633 630 628 625 622 620 617 616 614 611 609 607 605 602 599 596 593 590 587 583 579 577 577 577 576 574 571 567 564 562 559 557 555 552 548 545 542 539 537 534 531 528 525 522 520 517 513 509 503 499 495 491 487 485 482 479 477